Weather in Bohtar

Tajikistan     37°50′18″N   68°46′45″E
temp.,
°C
wind,
m/s
gust,
m/s
humid.,
%
clouds,
%
prec.,
mm/h
press.,
hPa
HPBL,
m
12 may, wed
wed1223:00+19n4679100 6.1 1014275
02:00+18n237895 1.1 101390
05:00+18n227455 1.1 101336
08:00+21nne225812 0.0 1014322
11:00+25wsw01437 0.0 1013883
14:00+29s23339 0.0 10112000
17:00+29se23311 0.0 10081939
20:00+25sse47445 0.0 1008149
13 may, thu
thu1323:00+23wnw115029 0.1 100911
02:00+22ene2354100 0.0 100873
05:00+19ene35706 0.1 1010140
08:00+22ne335639 0.0 1012544
11:00+25ene22410 0.0 10111350
14:00+28e13280 0.0 10092308
17:00+30se35228 0.0 10072627
20:00+24nne45361 0.0 100991
14 may, fri
fri1423:00+20n585620 0.0 1010205
02:00+19n46555 0.0 1009132
05:00+19n335665 0.0 101057
08:00+22n33455 0.0 1011329
11:00+27n01315 0.0 10101076
14:00+30ssw12210 0.0 10082695
17:00+30s22170 0.0 10072798
20:00+26ene11252 0.0 100812
15 may, sat
sat1523:00+22n35382 0.0 100975
02:00+20n35473 0.0 100881
05:00+19nne33511 0.0 100957
08:00+23nne33410 0.0 1010307
11:00+28nne11280 0.0 10081040
14:00+31nne12180 0.0 10062801
17:00+32e12170 0.0 10052273
20:00+27s22235 0.0 100512
16 may, sun
sun1623:00+24n33314 0.0 100729
02:00+22n35395 0.0 100773
05:00+20nne34446 0.0 100860
08:00+25nne33354 0.0 1009289
11:00+30nne11230 0.0 10091020
14:00+33n12150 0.0 10073029
17:00+33ene12153 0.0 10052598
20:00+29wsw11210 0.0 100611